{"data":{"norad_id":55586,"intl_designator":"2023-020T","name":"STARLINK-5767","alt_names":[],"object_type":"PAYLOAD","status":"ACTIVE","operator":null,"country":"US","launch_date":"2023-02-12","launch_site_code":"AFETR","launch_vehicle":null,"mission":null,"orbit_class":"UNKNOWN","rcs_meters":null,"size_class":null,"mass_kg":null,"dimensions":null,"purposes":["comms"],"wikipedia_slug":null,"has_3d_model":false,"image_url":null,"decayed_at":null,"tle_current":{"epoch":"2026-05-24T21:16:54.075936Z","epoch_age_seconds":84943,"freshness":"FRESH","line1":"1 55586U 23020T   26144.88673699 -.00005604  00000+0 -19405-3 0  9997","line2":"2 55586  42.9992 295.1008 0001354 306.2892  53.7835 15.27618245180566","mean_motion":15.27618245,"eccentricity":0.0001354,"inclination_deg":42.9992,"raan_deg":295.1008,"arg_perigee_deg":306.2892,"mean_anomaly_deg":53.7835,"bstar":-0.00019405,"rev_number":18056,"period_min":94.264388679123,"perigee_km":482.0055900485,"apogee_km":483.86356823213,"semimajor_km":6861.0715791403,"source":"CELESTRAK","updated_at":"2026-05-25T13:38:17.837808Z"}}}